FW4468 Weather Reports


Display with metric or nautical units.
time (UTC)temp
F
wind
direction
speed
MPH
gust
MPH
rain 1hr
in
rain 24hr
in
rain mn
in
humidity
%
barometer
mb
20260503031605 68 127 1.0 4.0 0.00 0.00 0.00 35 1012.2
20260503030054 69 312 1.0 6.0 0.00 0.00 0.00 34 1012.2
20260503024555 69 157 2.0 8.0 0.00 0.00 0.00 34 1012.0
20260503023054 70 132 1.0 3.0 0.00 0.00 0.00 32 1012.0
20260503021553 70 74 2.0 7.0 0.00 0.00 0.00 34 1012.1
20260503020054 71 85 2.0 6.0 0.00 0.00 0.00 33 1012.1
20260503014607 71 234 3.0 10.0 0.00 0.00 0.00 31 1012.2
20260503013050 72 101 2.0 9.0 0.00 0.00 0.00 32 1012.2
20260503011555 72 67 2.0 9.0 0.00 0.00 0.00 31 1012.4
20260503010048 73 90 3.0 12.0 0.00 0.00 0.00 31 1012.3
20260503004548 74 89 4.0 10.0 0.00 0.00 0.00 29 1012.5
20260503003047 75 92 2.0 9.0 0.00 0.00 0.00 31 1012.4
20260503001555 75 268 3.0 10.0 0.00 0.00 0.00 32 1012.5
20260503000043 75 236 1.0 8.0 0.00 0.00 0.00 33 1012.6
20260502234543 75 195 3.0 12.0 0.00 0.00 0.00 32 1012.7
20260502233037 75 21 1.0 11.0 0.00 0.00 0.00 32 1012.9
20260502231536 75 239 3.0 12.0 0.00 0.00 0.00 33 1013.0
20260502230036 74 9 3.0 12.0 0.00 0.00 0.00 34 1013.3
20260502224533 74 277 2.0 10.0 0.00 0.00 0.00 35 1013.7
20260502223028 74 355 2.0 12.0 0.00 0.00 0.00 35 1013.8
20260502221526 74 112 4.0 12.0 0.00 0.00 0.00 34 1014.0
20260502220028 74 355 4.0 15.0 0.00 0.00 0.00 35 1014.1
20260502214523 73 283 2.0 14.0 0.00 0.00 0.00 38 1014.3
20260502213021 73 128 3.0 14.0 0.00 0.00 0.00 36 1014.5
20260502211519 73 61 3.0 12.0 0.00 0.00 0.00 38 1014.6
20260502210015 72 59 2.0 10.0 0.00 0.00 0.00 40 1014.8
20260502204514 72 5 4.0 10.0 0.00 0.00 0.00 40 1014.9
20260502203010 71 55 3.0 10.0 0.00 0.00 0.00 42 1015.0
20260502201509 71 55 2.0 10.0 0.00 0.00 0.00 41 1015.2
20260502200009 70 58 4.0 10.0 0.00 0.00 0.00 41 1015.3
20260502194508 71 147 3.0 12.0 0.00 0.00 0.00 42 1015.3
20260502193007 70 337 4.0 13.0 0.00 0.00 0.00 43 1015.3
20260502191502 69 207 4.0 13.0 0.00 0.00 0.00 46 1015.4
20260502190111 69 88 2.0 8.0 0.00 0.00 0.00 45 1015.4
20260502184602 67 86 3.0 12.0 0.00 0.00 0.00 48 1015.6
20260502183110 66 132 3.0 11.0 0.00 0.00 0.00 49 1015.7
20260502181552 65 33 3.0 11.0 0.00 0.00 0.00 51 1015.7
20260502163040 60 49 3.0 10.0 0.00 0.00 0.00 58 1016.0
20260502161533 59 268 4.0 11.0 0.00 0.00 0.00 60 1016.1
20260502151522 52 336 1.0 3.0 0.00 0.00 0.00 68 1016.1
20260502123016 49 137 0.0 0.0 0.00 0.00 0.00 70 1015.9
20260502121514 50 137 0.0 1.0 0.00 0.00 0.00 70 1016.2
20260502114510 50 137 0.0 4.0 0.00 0.00 0.00 70 1016.4
20260502113007 50 176 0.0 3.0 0.00 0.00 0.00 70 1016.8
20260502111515 49 269 0.0 1.0 0.00 0.00 0.00 69 1016.6
20260502110007 49 270 0.0 1.0 0.00 0.00 0.00 69 1016.2
20260502104504 49 269 0.0 0.0 0.00 0.00 0.00 68 1016.0
20260502103002 49 269 0.0 0.0 0.00 0.00 0.00 68 1016.1
20260502101559 50 270 0.0 0.0 0.00 0.00 0.00 67 1016.2
20260502090106 51 269 0.0 0.0 0.00 0.00 0.00 67 1016.3
20260502070037 54 269 0.0 0.0 0.00 0.00 0.00 62 1015.9
20260502064535 55 269 0.0 0.0 0.00 0.00 0.00 62 1015.7
20260502063035 55 269 0.0 0.0 0.00 0.00 0.00 61 1015.7
20260502061534 56 269 0.0 1.0 0.00 0.00 0.00 62 1016.0
20260502060034 56 269 0.0 1.0 0.00 0.00 0.00 61 1015.6
20260502054534 56 269 0.0 1.0 0.00 0.00 0.00 60 1015.5
20260502053034 57 269 0.0 1.0 0.00 0.00 0.00 58 1015.5
20260502051540 58 271 0.0 2.0 0.00 0.00 0.00 57 1015.4
20260502050037 58 271 0.0 2.0 0.00 0.00 0.00 57 1015.2
20260502044536 58 271 0.0 2.0 0.00 0.00 0.00 57 1015.1
20260502043030 58 270 0.0 1.0 0.00 0.00 0.00 57 1014.9
20260502041545 59 311 0.0 3.0 0.00 0.00 0.00 57 1014.7
20260502040030 59 115 0.0 2.0 0.00 0.00 0.00 54 1014.6
20260502034529 61 116 0.0 1.0 0.00 0.00 0.00 51 1014.4
20260502033028 61 116 0.0 2.0 0.00 0.00 0.00 49 1014.0